Theta_e
303 303 303 302 303 303 303 302 299 295 297 302 300 304 303 303 302 302 302 302 301 302 302 302 302 302 303 304 305 307 307 307 307 308 309 309 310 311
300 300 300 300 300 301 301 300 300 297 295 300 300 301 301 299 299 297 297 299 300 300 300 300 300 300 300 302 303 304 304 305 307 308 308 309 309 309
299 299 297 297 298 298 299 298 298 297 294 295 296 296 295 295 294 295 295 295 296 298 298 298 299 298 299 300 300 300 301 302 303 304 305 306 308 308
293 292 291 292 292 293 293 292 293 294 292 289 291 292 292 293 293 293 292 293 294 296 296 297 297 296 297 297 297 297 297 298 298 300 302 303 304 307
292 291 291 291 290 291 291 291 292 291 291 290 289 291 291 292 292 293 293 293 293 295 295 296 296 296 296 296 297 296 296 296 297 298 300 301 302 303
291 290 290 290 290 290 291 291 291 290 290 289 289 288 290 291 291 289 289 291 290 292 293 294 295 295 295 295 295 295 294 295 296 296 297 298 299 301
289 289 290 290 290 291 290 290 289 289 289 288 288 288 288 287 287 288 288 289 290 291 290 291 292 292 293 294 294 294 293 294 295 295 296 297 298 299
288 289 289 288 289 289 289 290 291 289 287 287 287 287 287 288 288 288 288 286 285 291 289 288 291 291 292 293 293 293 293 294 294 294 295 295 295 295
288 288 287 288 288 288 289 290 290 290 291 290 287 287 287 288 288 287 287 287 286 289 289 287 289 289 291 291 292 292 293 293 293 294 294 294 294 295
288 287 287 288 288 289 289 289 289 289 290 290 289 289 290 290 290 289 288 288 288 288 289 284 288 287 290 291 292 292 292 292 292 293 293 293 293 294
287 288 288 288 288 289 288 288 288 289 291 291 291 291 291 291 291 289 286 285 284 284 287 286 286 286 288 289 290 291 291 291 292 292 293 292 292 293
287 287 287 288 288 289 288 287 286 287 288 288 289 289 289 288 288 288 286 283 283 281 286 285 285 285 281 286 287 289 290 291 291 292 292 292 292 292
286 286 287 287 288 289 289 287 287 288 288 287 286 286 286 287 287 288 288 286 282 281 287 286 284 284 284 283 286 288 288 289 290 290 291 291 292 292
285 286 287 287 288 288 288 288 288 288 287 285 284 284 285 285 286 287 287 287 288 286 287 287 283 284 283 281 281 286 287 289 289 289 289 290 291 291
287 287 287 287 288 288 287 287 286 286 285 283 283 284 285 286 286 286 287 287 286 285 286 286 285 284 284 280 280 283 284 286 288 288 287 288 288 288
286 287 287 287 287 286 285 285 285 285 284 283 283 284 284 284 284 285 284 283 282 283 286 286 286 285 282 283 283 281 284 282 286 285 287 288 287 288
286 286 285 284 283 283 283 283 284 283 281 281 281 280 280 280 280 282 281 281 280 281 281 283 285 285 284 283 279 283 283 284 285 284 285 284 287 288
285 283 282 282 281 281 281 280 281 281 281 281 281 281 280 280 279 280 282 281 279 280 280 282 282 281 281 283 285 283 283 283 285 285 284 284 285 286
282 281 280 281 280 279 280 280 280 281 281 282 281 280 280 281 280 279 279 279 279 279 280 281 281 279 276 275 282 284 282 282 283 283 285 284 283 284
281 280 280 280 279 279 279 280 280 280 280 281 281 281 281 280 279 279 280 278 278 279 280 282 281 280 277 277 277 281 284 283 283 283 284 284 286 286
280 279 280 279 280 280 279 279 280 280 281 281 279 280 280 280 280 280 280 280 280 279 278 279 281 283 282 282 277 279 284 286 284 283 283 282 282 283
279 279 280 280 280 280 280 280 280 279 279 279 279 279 279 280 280 279 280 279 279 279 279 281 282 281 280 278 277 278 281 284 285 285 285 284 282 279
279 280 280 280 280 280 280 280 279 279 279 279 279 279 280 279 280 280 280 280 280 279 280 280 281 281 279 279 279 279 280 281 282 282 284 285 284 285
Wind_Speed
4 4 3 3 2 2 1 2 3 4 6 1 4 1 8 8 7 11 11 12 16 14 16 16 18 20 22 23 23 24 24 23 23 22 22 22 22 22
3 4 4 3 3 2 1 1 3 4 5 4 6 8 8 7 8 11 11 12 11 12 14 16 18 19 21 21 21 21 22 24 24 24 23 23 23 23
5 5 5 4 3 2 2 2 3 3 7 7 7 9 10 11 11 10 9 10 9 12 14 18 18 19 18 18 19 21 22 22 23 23 24 24 24 24
5 5 4 3 3 3 3 3 3 3 5 9 8 8 11 12 11 13 10 9 10 11 15 17 18 18 19 19 21 21 22 22 23 23 23 23 23 24
4 4 4 3 3 3 4 4 4 4 5 7 8 7 8 10 11 11 11 11 9 13 17 19 18 18 18 22 22 22 20 21 22 23 24 24 23 22
4 3 3 3 4 4 4 5 5 6 7 7 7 8 7 8 8 10 10 10 10 11 14 14 18 18 21 22 22 19 20 22 23 24 24 24 24 24
3 2 3 4 3 5 5 6 7 7 7 8 8 8 8 8 9 9 10 10 11 10 11 10 11 11 12 17 15 16 21 24 24 25 25 24 24 24
2 2 3 2 4 5 7 8 8 8 9 8 8 9 10 9 9 9 9 9 11 8 11 12 11 11 11 11 19 24 23 24 25 24 22 23 25 27
1 2 3 3 4 5 7 9 9 9 9 9 11 11 12 11 12 12 12 12 12 11 11 11 11 11 11 12 21 24 25 25 25 22 23 26 25 27
2 3 4 5 5 7 8 8 8 8 8 7 9 11 11 11 12 12 13 14 12 11 10 12 11 11 11 11 23 25 24 24 24 24 25 26 27 27
3 3 4 5 6 10 9 9 9 9 7 9 12 14 14 15 12 9 9 10 11 11 10 10 11 11 11 11 11 22 24 28 26 24 25 26 28 28
3 4 4 6 10 11 9 9 10 10 10 10 10 11 12 11 13 9 8 9 10 10 8 10 10 10 10 10 10 11 11 21 26 24 25 27 26 12
4 4 4 7 11 12 12 9 9 12 13 9 9 8 8 8 7 7 8 8 9 10 11 10 9 10 9 12 10 10 11 12 12 14 21 25 25 22
5 5 6 10 13 12 11 11 15 13 8 8 8 8 8 8 8 8 10 10 9 12 13 13 9 9 10 12 13 10 11 11 11 11 12 17 24 26
5 8 13 12 12 10 10 14 14 7 7 7 8 8 7 7 9 9 9 10 9 12 11 11 9 10 9 11 13 11 14 11 11 9 12 12 12 12
7 7 8 10 11 10 9 7 6 6 7 8 8 8 7 6 7 7 8 7 9 9 9 10 10 11 10 10 11 12 11 11 11 11 12 12 12 8
10 6 6 6 7 7 6 6 6 6 7 6 6 7 7 8 8 8 7 8 9 10 9 8 9 10 9 13 11 10 11 10 9 10 12 13 12 7
6 6 7 7 7 7 7 7 7 8 7 7 7 7 7 7 7 7 8 8 9 9 10 9 8 9 9 10 13 9 9 10 9 10 11 9 7 6
6 6 6 6 6 6 6 7 7 7 8 7 7 7 7 7 9 8 8 8 8 8 9 9 8 8 10 11 7 9 7 11 11 10 7 6 6 7
4 5 6 6 6 7 6 6 6 6 7 7 8 7 7 7 8 8 8 9 8 9 9 8 8 7 8 10 10 12 14 9 8 8 7 6 4 8
4 5 5 6 6 6 6 6 7 7 8 7 8 7 7 7 8 9 9 15 15 9 9 9 8 15 8 7 7 9 8 6 7 7 6 6 5 4
4 5 6 6 6 6 6 6 6 7 8 7 8 8 8 7 8 9 9 9 9 9 10 9 8 6 6 7 9 11 8 6 6 8 10 6 3 4
5 6 6 6 6 6 6 6 7 8 8 8 8 8 8 8 8 8 9 9 9 10 10 9 7 6 7 6 10 8 9 8 7 7 5 4 7 10
Wind_Direction
102 102 96 83 76 59 338 303 313 308 316 62 315 7 347 335 5 332 325 356 319 324 328 329 330 329 326 322 318 317 316 315 313 310 309 308 308 308
98 101 94 77 79 66 32 316 268 282 275 322 317 328 330 318 329 320 323 310 315 319 327 327 326 327 324 322 322 321 323 321 315 312 309 305 303 304
96 92 80 54 57 49 26 347 295 284 280 294 310 322 318 321 321 323 315 313 312 327 322 319 321 324 324 324 322 319 320 321 320 316 313 309 300 299
91 87 71 48 39 20 345 333 311 297 297 298 309 313 315 319 317 319 322 318 318 319 325 313 312 314 313 318 318 318 321 320 316 315 311 310 307 298
84 67 51 17 9 1 335 323 312 301 296 294 301 307 306 313 321 321 319 319 323 321 317 315 311 314 314 310 310 313 314 317 315 313 313 311 308 304
86 62 39 2 339 325 309 305 302 303 300 294 299 305 309 315 310 316 321 320 321 321 318 315 313 315 309 307 306 303 305 312 312 314 312 310 309 306
102 69 45 17 10 349 325 319 308 302 298 296 298 305 306 320 318 316 309 312 310 324 317 313 312 308 305 307 302 309 312 307 308 310 310 307 308 308
82 57 14 255 344 325 316 303 302 300 300 300 298 297 302 314 307 310 312 306 306 305 314 308 306 305 303 301 310 310 311 307 306 305 307 315 311 305
36 341 327 331 309 321 305 294 286 290 289 297 293 297 303 305 307 306 310 308 305 314 302 294 301 297 300 301 308 308 305 304 303 304 305 309 307 305
344 332 317 319 326 317 311 308 305 302 296 295 292 296 297 304 304 305 306 300 293 295 309 299 303 299 304 307 305 302 303 304 303 302 306 304 304 301
337 313 313 308 323 314 307 300 301 299 299 288 289 294 297 299 299 300 295 301 296 303 313 295 304 314 304 296 303 314 315 307 300 301 302 301 302 303
311 298 287 310 315 306 302 305 302 307 312 308 310 307 302 304 307 295 302 296 303 297 304 305 305 312 304 300 307 298 297 305 305 301 303 302 302 297
305 307 306 304 302 298 305 302 309 313 306 306 303 304 306 302 304 302 297 291 292 287 294 302 300 297 285 304 300 301 300 304 302 301 299 307 304 300
294 299 298 298 297 308 305 312 305 303 301 297 299 296 302 303 302 303 300 296 290 287 296 296 285 290 296 297 298 304 300 298 302 306 304 300 304 302
294 305 300 302 298 288 297 302 303 292 293 292 292 295 298 303 306 291 289 290 287 286 287 292 283 288 287 293 295 300 306 307 298 301 305 299 304 295
297 292 306 297 293 289 294 299 308 307 303 297 298 307 303 292 290 299 298 300 294 288 283 284 281 288 289 290 296 300 295 292 304 309 300 303 300 284
309 312 304 298 300 308 308 308 313 318 312 305 302 301 300 300 300 302 295 291 285 296 302 299 295 291 286 285 284 282 293 294 295 304 310 305 305 301
305 292 297 307 310 316 318 313 307 302 296 292 288 292 295 294 292 290 293 296 295 295 295 299 297 292 293 280 254 288 295 297 306 308 305 308 324 345
294 301 302 304 308 299 294 294 295 301 305 289 294 290 283 287 305 297 293 291 288 291 295 296 297 295 297 299 308 294 304 303 298 295 305 324 325 341
309 302 306 309 306 299 298 300 300 297 290 290 288 297 296 288 285 284 287 289 289 284 286 289 288 284 280 297 302 304 285 277 292 297 310 325 288 281
306 301 297 293 292 299 295 292 288 291 292 302 298 293 293 293 290 289 287 296 297 296 292 290 290 297 296 287 284 288 309 306 282 288 314 312 337 346
297 293 298 295 293 288 290 291 294 296 299 298 297 295 292 288 287 287 286 288 288 286 286 288 289 282 280 277 286 296 297 322 302 272 262 257 319 326
290 293 294 293 293 293 287 290 291 293 295 295 295 294 293 289 286 286 285 285 287 285 287 290 288 279 272 275 285 288 307 315 318 314 300 277 287 291